Location: Newark
(52.3500°N, 175.9667°E)
Time: 10:42:52
(UTC+00:00)

Transit 4A - Pass Details

Date: 21 April 2021
Orbit: 870 x 974 km, 66.8° (Epoch: 07 May)

Event Time Altitude Azimuth Distance (km) Brightness Sun altitude
Rises 20:18:05 0° 319° (NW) 3,525 10.5 28.2°
Reaches altitude 10° 20:20:41 10° 314° (NW) 2,567 9.8 28.6°
Maximum altitude 20:26:20 48° 242° (WSW) 1,133 8.5 29.4°
Drops below altitude 10° 20:31:53 10° 169° (S) 2,514 10.7 30.2°
Sets 20:34:24 0° 164° (SSE) 3,446 11.4 30.6°
